Location: Newark
(51.5114°N, 0.0848°W)
Time: 01:39:20
(UTC+00:00)

N. Korean satellite - Pass Details

Date: 30 October 2019
Orbit: 456 x 506 km, 97.2° (Epoch: 20 November)

Event Time Altitude Azimuth Distance (km) Brightness Sun altitude
Rises 17:26:31 0° 185° (S) 2,485 10.4 -8.1°
Reaches altitude 10° 17:28:38 10° 193° (SSW) 1,622 9.6 -8.4°
Maximum altitude 17:31:54 37° 263° (W) 753 8.3 -8.9°
Drops below altitude 10° 17:35:14 10° 332° (NNW) 1,661 9.5 -9.5°
Sets 17:37:26 0° 341° (NNW) 2,555 10.4 -9.8°
